Flag for United Kingdom Weather past 2 weeks in Watford, England, United Kingdom

Now
66 °F

Broken clouds.


Feels Like: 66 °F
Forecast: 58 / 70 °F
Wind: 12 mph from Southeast

Location: Northolt

Current Time: Aug 27, 2014 at 2:25:14 PM

Latest Report: Aug 27, 2014 at 1:50 PM


Visibility: N/A

Pressure: 29.95 "Hg

Humidity: 60%

Dew point: 52 °F

Location of WatfordLocation

Historic Weather in Watford — Graph

°F

Watford temperature yesterday

Maximum temperature yesterday: 63 °F (at 3:50 PM)
Minimum temperature yesterday: 55 °F (at 11:50 PM)
Average temperature yesterday: 59 °F

Past Weeks' High & Low Weather Summary

 TemperatureHumidityPressure
High72 °F (Aug 13, 3:50 PM)100% (Aug 14, 9:50 PM)30.15 "Hg (Aug 14, 9:50 PM)
Low43 °F (Aug 21, 5:50 AM)38% (Aug 17, 3:50 PM)29.53 "Hg (Aug 25, 7:50 PM)
Average58 °F73%29.88 "Hg
* Reported Aug 12 12:24 PM — Aug 27 12:50 PM, Watford, Weather by CustomWeather, © 2014

Note: Actual official high and low records may vary slightly from our data, if they occured in-between our weather recording intervals... More about our weather records

Advertising

Watford weather history for previous 24 hours

 ConditionsComfort  
Time TempWeatherWind HumidityBarometerVisibility
12:50 PM
Aug 27
64 °FOvercast.14 mph64%29.95 "HgN/A
11:50 AM66 °FBroken clouds.16 mph60%29.98 "HgN/A
10:50 AM64 °FBroken clouds.14 mph64%29.98 "HgN/A
9:50 AM63 °FPartly sunny.10 mph68%29.98 "HgN/A
8:50 AM59 °FPartly sunny.9 mph77%29.98 "HgN/A
7:50 AM55 °FPartly sunny.6 mph82%29.98 "HgN/A
6:50 AM52 °FPassing clouds.7 mph94%29.98 "HgN/A
5:50 AM52 °FPassing clouds.9 mph88%29.95 "HgN/A
4:50 AM52 °FPassing clouds.6 mph88%29.95 "HgN/A
3:50 AM50 °FPassing clouds.3 mph94%29.95 "HgN/A
2:50 AM52 °FClear.5 mph88%29.95 "HgN/A
1:50 AM54 °FClear.6 mph82%29.92 "HgN/A
12:50 AM54 °FClear.10 mph82%29.92 "Hg10 mi
11:50 PM
Aug 26
55 °FClear.10 mph77%29.92 "Hg10 mi
10:50 PM57 °FPassing clouds.10 mph72%29.89 "HgN/A
9:50 PM57 °FPassing clouds.9 mph77%29.89 "HgN/A
8:50 PM57 °FPassing clouds.8 mph82%29.86 "HgN/A
7:50 PM59 °FScattered clouds.10 mph82%29.83 "HgN/A
6:50 PM61 °FPartly sunny.15 mph77%29.80 "HgN/A
5:50 PM61 °FBroken clouds.9 mph83%29.77 "HgN/A
4:50 PM61 °FBroken clouds.13 mph83%29.77 "HgN/A
3:50 PM63 °FBroken clouds.14 mph77%29.74 "HgN/A
2:50 PM61 °FPartly sunny.14 mph83%29.71 "HgN/A
Weather by CustomWeather, © 2014

See weather overviewHow to use our weather pages